GW1572 Weather Reports


Display with metric or nautical units.
time (UTC)temp
F
wind
direction
speed
MPH
gust
MPH
rain 1hr
in
rain 24hr
in
rain mn
in
humidity
%
barometer
mb
20260904221902 89 321 2.0 2.0 0.00 0.00 0.00 74 1006.0
20260904220943 90 141 1.0 2.0 0.00 0.00 0.00 72 1005.7
20260904220523 89 171 1.0 1.0 0.00 0.00 0.00 73 1006.0
20260904215646 89 29 2.0 2.0 0.00 0.00 0.00 72 1006.4
20260904215229 88 170 0.0 1.0 0.00 0.00 0.00 73 1006.4
20260904214755 87 227 0.0 0.0 0.00 0.00 0.00 80 1006.7
20260904214339 84 155 0.0 1.0 0.00 0.00 0.00 83 1006.7
20260904213902 83 141 0.0 0.0 0.00 0.00 0.00 87 1007.1
20260904213446 82 143 0.0 0.0 0.00 0.00 0.00 88 1006.7
20260904213013 82 139 0.0 0.0 0.00 0.00 0.00 87 1006.7
20260904212556 82 141 0.0 0.0 0.00 0.00 0.00 87 1006.7
20260904212140 82 139 1.0 1.0 0.00 0.00 0.00 87 1006.7
20260904211708 82 47 1.0 1.0 0.00 0.00 0.00 87 1006.7
20260904211236 82 100 1.0 1.0 0.00 0.00 0.00 86 1006.7
20260904210331 83 148 0.0 0.0 0.00 0.00 0.00 86 1006.4
20260904205914 83 115 0.0 0.0 0.00 0.00 0.00 85 1006.4
20260904204554 85 141 0.0 0.0 0.00 0.00 0.00 81 1006.4
20260904204137 86 134 0.0 0.0 0.00 0.00 0.00 79 1006.4
20260904203650 86 136 0.0 0.0 0.00 0.00 0.00 78 1006.0
20260904202801 88 142 0.0 0.0 0.00 0.00 0.00 75 1006.0
20260904202346 88 154 0.0 1.0 0.00 0.00 0.00 72 1005.7
20260904201928 89 196 1.0 1.0 0.00 0.00 0.00 70 1006.0
20260904201512 87 122 0.0 0.0 0.00 0.00 0.00 72 1006.0
20260904200606 86 237 2.0 3.0 0.00 0.00 0.00 75 1006.4
20260904195715 88 261 5.0 6.0 0.00 0.00 0.00 73 1006.7
20260904195241 89 199 1.0 1.0 0.00 0.00 0.00 69 1007.1
20260904194810 87 175 1.0 1.0 0.00 0.00 0.00 71 1006.7
20260904194337 88 184 3.0 3.0 0.00 0.00 0.00 70 1007.1
20260904193917 87 209 1.0 1.0 0.00 0.00 0.00 71 1007.1
20260904192958 86 67 2.0 4.0 0.00 0.00 0.00 75 1007.1
20260904192545 89 25 8.0 14.0 0.00 0.00 0.00 73 1007.1
20260904192114 89 143 0.0 0.0 0.00 0.00 0.00 81 1006.7
20260904191643 89 136 0.0 0.0 0.00 0.00 0.00 81 1006.4
20260904191208 89 136 0.0 0.0 0.00 0.00 0.00 82 1006.4
20260904190752 89 135 0.0 0.0 0.00 0.00 0.00 82 1006.0
20260904190323 89 151 0.0 0.0 0.00 0.00 0.00 81 1005.7
20260904185852 90 140 0.0 0.0 0.00 0.00 0.00 79 1005.7
20260904185436 90 141 0.0 1.0 0.00 0.00 0.00 78 1006.0
20260904184531 92 122 0.0 0.0 0.00 0.00 0.00 74 1006.0
20260904184059 93 138 0.0 0.0 0.00 0.00 0.00 72 1006.0
20260904183642 94 128 0.0 0.0 0.00 0.00 0.00 70 1006.4
20260904183225 96 17 1.0 1.0 0.00 0.00 0.00 64 1006.0
20260904182809 96 168 0.0 0.0 0.00 0.00 0.00 62 1006.0
20260904182353 95 174 1.0 2.0 0.00 0.00 0.00 63 1006.0
20260904181937 96 231 2.0 3.0 0.00 0.00 0.00 61 1006.0
20260904181505 95 242 3.0 3.0 0.00 0.00 0.00 63 1006.0
20260904181048 95 195 6.0 7.0 0.00 0.00 0.00 61 1006.0
20260904180616 96 131 3.0 3.0 0.00 0.00 0.00 61 1006.0
20260904180128 95 249 4.0 4.0 0.00 0.00 0.00 60 1006.4
20260904175656 96 221 2.0 2.0 0.00 0.00 0.00 63 1006.4
20260904175224 96 210 1.0 1.0 0.00 0.00 0.00 61 1006.7
20260904174806 95 268 3.0 3.0 0.00 0.00 0.00 65 1006.4
20260904173411 94 220 5.0 6.0 0.00 0.00 0.00 62 1007.1
20260904172505 95 215 1.0 1.0 0.00 0.00 0.00 65 1007.1
20260904172047 94 189 1.0 1.0 0.00 0.00 0.00 65 1007.4
20260904171629 94 192 2.0 2.0 0.00 0.00 0.00 67 1007.4
20260904170712 97 215 1.0 2.0 0.00 0.00 0.00 66 1007.4
20260904170253 96 165 0.0 0.0 0.00 0.00 0.00 64 1007.4
20260904165836 94 332 2.0 3.0 0.00 0.00 0.00 66 1007.4
20260904164949 95 208 1.0 2.0 0.00 0.00 0.00 69 1007.7
20260904164532 94 193 0.0 1.0 0.00 0.00 0.00 67 1007.7
20260904164115 94 129 0.0 1.0 0.00 0.00 0.00 67 1007.4
20260904163644 94 157 2.0 2.0 0.00 0.00 0.00 68 1007.4
20260904163227 94 177 0.0 0.0 0.00 0.00 0.00 72 1007.4
20260904162809 93 193 2.0 2.0 0.00 0.00 0.00 69 1007.7
20260904162337 93 160 0.0 1.0 0.00 0.00 0.00 70 1007.7
20260904161921 92 181 2.0 2.0 0.00 0.00 0.00 72 1007.7
20260904161033 92 163 2.0 2.0 0.00 0.00 0.00 74 1007.7
20260904160617 92 98 1.0 1.0 0.00 0.00 0.00 72 1007.7
20260904160202 92 192 1.0 1.0 0.00 0.00 0.00 74 1008.1
20260904155746 92 54 1.0 1.0 0.00 0.00 0.00 73 1007.7
20260904155328 92 221 1.0 1.0 0.00 0.00 0.00 76 1007.7
20260904154911 91 149 0.0 0.0 0.00 0.00 0.00 73 1008.1
20260904154454 91 192 1.0 1.0 0.00 0.00 0.00 78 1008.1
20260904154023 91 180 0.0 1.0 0.00 0.00 0.00 75 1007.7
20260904153607 90 184 1.0 1.0 0.00 0.00 0.00 77 1008.1
20260904153149 91 180 1.0 1.0 0.00 0.00 0.00 75 1008.1
20260904152247 90 158 1.0 1.0 0.00 0.00 0.00 77 1007.7
20260904151827 89 132 0.0 0.0 0.00 0.00 0.00 77 1007.7
20260904151409 89 162 0.0 0.0 0.00 0.00 0.00 77 1007.7
20260904150951 88 180 1.0 1.0 0.00 0.00 0.00 78 1007.7
20260904150536 88 169 1.0 1.0 0.00 0.00 0.00 83 1007.7
20260904150120 87 169 0.0 1.0 0.00 0.00 0.00 81 1008.1
20260904145230 86 147 0.0 0.0 0.00 0.00 0.00 86 1007.7
20260904144758 85 143 1.0 1.0 0.00 0.00 0.00 86 1008.1
20260904144328 85 199 1.0 1.0 0.00 0.00 0.00 88 1008.1
20260904143854 84 145 0.0 0.0 0.00 0.00 0.00 90 1008.1
20260904143437 84 169 0.0 0.0 0.00 0.00 0.00 91 1007.7
20260904143006 83 164 1.0 1.0 0.00 0.00 0.00 93 1007.7
20260904142549 82 162 0.0 0.0 0.00 0.00 0.00 94 1008.1
20260904141703 82 181 1.0 1.0 0.00 0.00 0.00 94 1007.7
20260904141247 82 174 1.0 1.0 0.00 0.00 0.00 94 1007.7
20260904140832 81 148 0.0 0.0 0.00 0.00 0.00 95 1008.1
20260904140416 81 164 1.0 1.0 0.00 0.00 0.00 96 1007.7
20260904135958 80 148 0.0 1.0 0.00 0.00 0.00 97 1008.1
20260904135540 80 161 0.0 1.0 0.00 0.00 0.00 97 1008.1
20260904135123 80 176 0.0 1.0 0.00 0.00 0.00 97 1007.7
20260904134706 80 153 0.0 0.0 0.00 0.00 0.00 98 1008.1
20260904134235 79 181 0.0 0.0 0.00 0.00 0.00 98 1008.1
20260904133802 79 157 0.0 1.0 0.00 0.00 0.00 99 1008.1
20260904133346 78 177 1.0 1.0 0.00 0.00 0.00 99 1008.4
20260904132928 77 47 1.0 1.0 0.00 0.00 0.00 99 1007.7
20260904132042 77 115 0.0 0.0 0.00 0.00 0.00 99 1008.1
20260904131611 77 167 0.0 1.0 0.00 0.00 0.00 99 1008.1
20260904131155 76 143 0.0 0.0 0.00 0.00 0.00 99 1008.1
20260904130307 76 152 0.0 0.0 0.00 0.00 0.00 99 1008.1
20260904125419 75 147 0.0 0.0 0.00 0.00 0.00 99 1008.4
20260904125004 75 147 0.0 0.0 0.00 0.00 0.00 99 1008.1
20260904123217 74 137 0.0 0.0 0.00 0.00 0.00 99 1008.1
20260904122801 74 129 0.0 0.0 0.00 0.00 0.00 99 1008.1
20260904121902 73 128 0.0 0.0 0.00 0.00 0.00 99 1007.7
20260904121448 73 127 0.0 0.0 0.00 0.00 0.00 99 1007.7
20260904121034 73 142 0.0 0.0 0.00 0.00 0.00 99 1007.7
20260904120618 73 139 0.0 0.0 0.00 0.00 0.00 99 1007.7
20260904120201 73 137 0.0 0.0 0.00 0.00 0.00 99 1007.7
20260904115745 73 130 0.0 0.0 0.00 0.00 0.00 99 1007.7
20260904115331 73 130 0.0 0.0 0.00 0.00 0.00 99 1007.7
20260904114917 73 130 0.0 0.0 0.00 0.00 0.00 99 1007.7
20260904114502 73 141 0.0 0.0 0.00 0.00 0.00 99 1007.7
20260904113616 72 143 0.0 0.0 0.00 0.00 0.00 99 1007.7
20260904113201 72 143 0.0 0.0 0.00 0.00 0.00 99 1007.7
20260904112745 72 143 0.0 0.0 0.00 0.00 0.00 99 1007.7
20260904112329 72 143 0.0 0.0 0.00 0.00 0.00 99 1007.4
20260904111913 72 143 0.0 0.0 0.00 0.00 0.00 99 1007.7
20260904111457 72 143 0.0 0.0 0.00 0.00 0.00 99 1007.4
20260904111042 72 142 0.0 0.0 0.00 0.00 0.00 99 1007.7
20260904110626 72 142 0.0 0.0 0.00 0.00 0.00 99 1007.7
20260904110211 72 142 0.0 0.0 0.00 0.00 0.00 99 1007.7
20260904105308 72 143 0.0 0.0 0.00 0.00 0.00 99 1007.4
20260904104421 72 143 0.0 0.0 0.00 0.00 0.00 99 1007.4
20260904103950 72 143 0.0 0.0 0.00 0.00 0.00 99 1007.4
20260904103521 72 142 0.0 0.0 0.00 0.00 0.00 99 1007.4
20260904103105 72 142 0.0 0.0 0.00 0.00 0.00 99 1007.1
20260904102634 72 142 0.0 0.0 0.00 0.00 0.00 99 1007.1
20260904102220 72 142 0.0 0.0 0.00 0.00 0.00 99 1007.1
20260904101802 72 142 0.0 0.0 0.00 0.00 0.00 99 1007.7
20260904101347 72 142 0.0 0.0 0.00 0.00 0.00 99 1007.4
20260904100932 72 142 0.0 0.0 0.00 0.00 0.00 99 1007.4
20260904100517 72 142 0.0 0.0 0.00 0.00 0.00 99 1007.4
20260904095617 72 142 0.0 0.0 0.00 0.00 0.00 99 1007.4
20260904095159 72 142 0.0 0.0 0.00 0.00 0.00 99 1007.1
20260904094744 73 142 0.0 0.0 0.00 0.00 0.00 99 1007.1
20260904093843 73 142 0.0 0.0 0.00 0.00 0.00 99 1007.1
20260904092952 73 142 0.0 0.0 0.00 0.00 0.00 99 1007.1
20260904092036 73 142 0.0 0.0 0.00 0.00 0.00 99 1007.1
20260904091120 73 142 0.0 0.0 0.00 0.00 0.00 99 1007.1
20260904090704 73 142 0.0 0.0 0.00 0.00 0.00 99 1007.4
20260904090250 73 142 0.0 0.0 0.00 0.00 0.00 99 1007.1
20260904085834 73 139 0.0 0.0 0.00 0.00 0.00 99 1007.1
20260904085419 73 139 0.0 0.0 0.00 0.00 0.00 99 1007.1
20260904085003 73 138 0.0 0.0 0.00 0.00 0.00 99 1007.1
20260904084533 73 138 0.0 0.0 0.00 0.00 0.00 99 1007.1
20260904084118 73 125 0.0 0.0 0.00 0.00 0.00 99 1007.1
20260904083648 73 125 0.0 0.0 0.00 0.00 0.00 99 1006.7
20260904083234 73 125 0.0 0.0 0.00 0.00 0.00 99 1007.1
20260904082816 74 126 0.0 0.0 0.00 0.00 0.00 99 1007.1
20260904082347 73 132 0.0 0.0 0.00 0.00 0.00 99 1006.7
20260904081930 73 136 0.0 0.0 0.00 0.00 0.00 99 1006.7
20260904081502 73 135 0.0 0.0 0.00 0.00 0.00 99 1006.7
20260904081048 73 135 0.0 0.0 0.00 0.00 0.00 99 1006.7
20260904080617 74 134 0.0 0.0 0.00 0.00 0.00 99 1006.7
20260904075730 74 143 0.0 0.0 0.00 0.00 0.00 99 1007.1
20260904075314 74 143 0.0 0.0 0.00 0.00 0.00 99 1006.7
20260904074858 74 142 0.0 0.0 0.00 0.00 0.00 99 1007.1
20260904074443 74 142 0.0 0.0 0.00 0.00 0.00 99 1006.7
20260904074012 74 142 0.0 0.0 0.00 0.00 0.00 99 1006.7
20260904073539 74 142 0.0 0.0 0.00 0.00 0.00 99 1006.7
20260904073108 74 130 0.0 0.0 0.00 0.00 0.00 99 1007.1
20260904072654 74 135 0.0 0.0 0.00 0.00 0.00 99 1006.7
20260904072238 74 142 0.0 0.0 0.00 0.00 0.00 99 1007.1
20260904071824 74 136 0.0 0.0 0.00 0.00 0.00 99 1007.1
20260904071406 74 136 0.0 0.0 0.00 0.00 0.00 99 1007.1
20260904070951 74 122 0.0 0.0 0.00 0.00 0.00 99 1007.1
20260904070535 75 143 0.0 0.0 0.00 0.00 0.00 99 1007.1
20260904070120 75 142 0.0 0.0 0.00 0.00 0.00 99 1007.1
20260904065233 75 138 0.0 0.0 0.00 0.00 0.00 99 1007.1
20260904064815 75 124 0.0 0.0 0.00 0.00 0.00 99 1007.1
20260904064358 75 130 0.0 0.0 0.00 0.00 0.00 99 1007.1
20260904063941 75 136 0.0 0.0 0.00 0.00 0.00 99 1007.1
20260904063525 75 135 0.0 0.0 0.00 0.00 0.00 99 1007.1
20260904063053 75 129 0.0 0.0 0.00 0.00 0.00 99 1007.1
20260904062622 75 117 0.0 0.0 0.00 0.00 0.00 99 1007.1
20260904062207 75 135 0.0 0.0 0.00 0.00 0.00 99 1007.1
20260904061751 75 142 0.0 0.0 0.00 0.00 0.00 99 1007.1
20260904061336 75 142 0.0 0.0 0.00 0.00 0.00 99 1007.1
20260904060450 75 142 0.0 0.0 0.00 0.00 0.00 99 1007.4
20260904060019 75 142 0.0 0.0 0.00 0.00 0.00 99 1007.4
20260904055603 75 140 0.0 0.0 0.00 0.00 0.00 99 1007.4
20260904054717 76 144 0.0 0.0 0.00 0.00 0.00 99 1007.4
20260904053815 76 132 0.0 0.0 0.00 0.00 0.00 99 1007.4
20260904053359 76 116 0.0 0.0 0.00 0.00 0.00 99 1007.4
20260904052927 76 156 0.0 1.0 0.00 0.00 0.00 99 1007.4
20260904052418 76 145 0.0 0.0 0.00 0.00 0.00 99 1007.7
20260904051842 76 144 0.0 0.0 0.00 0.00 0.00 99 1007.7
20260904051213 76 144 0.0 0.0 0.00 0.00 0.00 99 1007.4
20260904050645 76 144 0.0 0.0 0.00 0.00 0.00 99 1007.4
20260904050034 76 144 0.0 0.0 0.00 0.00 0.00 99 1007.7
20260904044826 76 143 0.0 0.0 0.00 0.00 0.00 99 1007.4
20260904044248 77 135 0.0 0.0 0.00 0.00 0.00 99 1007.4
20260904043619 77 136 0.0 0.0 0.00 0.00 0.00 99 1007.7
20260904043026 77 143 0.0 0.0 0.00 0.00 0.00 99 1007.4
20260904041823 77 141 0.0 0.0 0.00 0.00 0.00 99 1007.4
20260904041219 77 141 0.0 0.0 0.00 0.00 0.00 99 1007.4
20260904040620 78 133 0.0 0.0 0.00 0.00 0.00 99 1007.1
20260904040025 78 135 0.0 0.0 0.00 0.00 0.00 99 1007.1
20260904034217 78 141 0.0 0.0 0.00 0.00 0.00 99 1007.1
20260904033614 78 113 0.0 0.0 0.00 0.00 0.00 99 1007.1
20260904032426 78 144 0.0 0.0 0.00 0.00 0.00 99 1007.4
20260904031807 78 140 0.0 0.0 0.00 0.00 0.00 99 1007.4
20260904031220 78 135 0.0 0.0 0.00 0.00 0.00 99 1007.1
20260904030630 78 135 0.0 0.0 0.00 0.00 0.00 99 1007.1
20260904030036 79 130 0.0 0.0 0.00 0.00 0.00 99 1007.4
20260904025411 79 139 0.0 0.0 0.00 0.00 0.00 99 1007.1
20260904024825 79 124 0.0 0.0 0.00 0.00 0.00 99 1007.1
20260904024224 79 71 0.0 1.0 0.00 0.00 0.00 99 1007.4
20260904023042 80 140 0.0 0.0 0.00 0.00 0.00 99 1007.1
20260904022433 80 126 0.0 0.0 0.00 0.00 0.00 99 1007.4
20260904021206 80 125 0.0 0.0 0.00 0.00 0.00 98 1007.4
20260904020642 80 132 0.0 0.0 0.00 0.00 0.00 98 1007.4
20260904020022 80 132 0.0 0.0 0.00 0.00 0.00 98 1007.4
20260904015423 80 131 0.0 0.0 0.00 0.00 0.00 98 1007.4
20260904014240 80 125 0.0 0.0 0.00 0.00 0.00 97 1007.4
20260904013613 81 128 0.0 0.0 0.00 0.00 0.00 97 1007.4
20260904013043 81 133 0.0 0.0 0.00 0.00 0.00 97 1007.4
20260904012419 81 133 0.0 0.0 0.00 0.00 0.00 97 1007.1
20260904011825 81 132 0.0 0.0 0.00 0.00 0.00 96 1007.1
20260904010009 81 139 0.0 0.0 0.00 0.00 0.00 95 1007.1
20260904005444 82 133 0.0 0.0 0.00 0.00 0.00 95 1007.1
20260904004806 82 126 0.0 0.0 0.00 0.00 0.00 94 1007.1
20260904004242 82 125 0.0 0.0 0.00 0.00 0.00 94 1006.7
20260904002445 83 142 0.0 0.0 0.00 0.00 0.00 92 1006.7
20260904001848 83 142 0.0 0.0 0.00 0.00 0.00 91 1006.4
20260904001236 84 142 0.0 0.0 0.00 0.00 0.00 91 1006.4
20260904000641 84 148 0.0 0.0 0.00 0.00 0.00 90 1006.4
20260904000015 85 131 0.0 0.0 0.00 0.00 0.00 90 1006.7
20260903235440 85 141 0.0 0.0 0.00 0.00 0.00 89 1006.4
20260903234828 86 141 0.0 0.0 0.00 0.00 0.00 89 1006.4
20260903234218 86 139 0.0 0.0 0.00 0.00 0.00 87 1006.7
20260903233618 86 139 0.0 0.0 0.00 0.00 0.00 86 1006.7
20260903232431 89 125 0.0 0.0 0.00 0.00 0.00 81 1006.7
20260903231236 94 144 0.0 0.0 0.00 0.00 0.00 74 1006.4
20260903230034 96 150 0.0 0.0 0.00 0.00 0.00 70 1006.0
20260903225421 96 149 0.0 0.0 0.00 0.00 0.00 69 1006.0
20260903224821 97 141 0.0 0.0 0.00 0.00 0.00 68 1006.0
20260903224246 97 134 0.0 0.0 0.00 0.00 0.00 67 1006.0